Overview Statistics Trail Chart Weather Telemetry Raw packets
 

This is the latest recevied weather packets stored in our database for station/object KCDH. If no packets are shown the sender has not sent any weather packets the latest 10 day(s).

<< 4 5 6 7 8 9 10 >>
Time Temp. Humidity Pressure Rain* Wind** Luminosity Snow
1788489807 30.56° C 55% 1012.9 hPa - - - -
1788489206 30.56° C 52% 1012.5 hPa - - - -
1788488605 30.56° C 52% 1012.5 hPa - - - -
1788488005 31.67° C 49% 1012.2 hPa - - - -
1788487406 31.67° C 49% 1012.2 hPa - - - -
1788486806 31.67° C 49% 1012.2 hPa - - - -
1788486207 31.67° C 49% 1012.2 hPa - - - -
1788485607 30.56° C 55% 1011.9 hPa - - - -
1788485006 30.56° C 55% 1011.9 hPa - - - -
1788484405 30.56° C 55% 1011.5 hPa - - - -
1788483807 30.56° C 55% 1011.5 hPa - - - -
1788483206 32.78° C 49% 1011.5 hPa - - - -
1788482606 32.78° C 49% 1011.5 hPa - - - -
1788482006 35° C 41% 1011.5 hPa - - - -
1788481406 35° C 41% 1011.5 hPa - - - -
1788480805 35.56° C 39% 1011.5 hPa - - - -
1788480205 35.56° C 39% 1011.5 hPa - - - -
1788479606 36.67° C 35% 1011.2 hPa - - - -
1788479002 36.67° C 35% 1011.2 hPa - - - -
1788478408 36.67° C 37% 1011.2 hPa - - - -
1788477804 36.67° C 37% 1011.2 hPa - - - -
1788477202 36.67° C 37% 1011.2 hPa - - - -
1788476606 36.67° C 37% 1011.2 hPa - - - -
1788476010 36.67° C 37% 1011.2 hPa - - - -
1788475409 36.67° C 37% 1011.2 hPa - - - -

* Rain since midnight (hover to see other rain measurements)
** Current wind speed in m/s (hover to see current wind gust speed)